Location: Geelbroek
(52.9503°N, 6.5712°E)
Time: 11:03:55
(UTC+00:00)

CZ-4B R/B - Pass Details

Date: 15 May 2026
Orbit: 442 x 557 km, 97.8° (Epoch: 8 June)

Event Time Altitude Azimuth Distance (km) Brightness Sun altitude
Exits shadow 20:49:54 12° 168° (SSE) 1,443 4.4 -10.1°
Maximum altitude 20:52:58 81° 256° (WSW) 473 2.5 -10.4°
Drops below altitude 10° 20:56:29 10° 344° (NNW) 1,645 6.5 -10.7°
Sets 20:58:35 0° 345° (NNW) 2,547 7.7 -10.9°
